Colby, KS

5:22 PM CST on November 24, 2017 (GMT -0600)
Shaltz

Weather History for KCBK - October, 2012

Change the Weather History Date:

Friday, October 5, 2012

  Actual Average (KGLD) Record (KGLD)
Temperature  
Mean Temperature 36 °F -  
Max Temperature 39 °F 69 °F 95 °F (1947)
Min Temperature 33 °F 41 °F 23 °F (1932)
Degree Days  
Heating Degree Days 29    
Moisture  
Dew Point 34 °F    
Average Humidity 90    
Maximum Humidity 100    
Minimum Humidity 70    
Precipitation  
Precipitation 0.00 in - - ()
Sea Level Pressure  
Sea Level Pressure 30.32 in    
Wind  
Wind Speed 8 mph ()    
Max Wind Speed 14 mph    
Max Gust Speed -    
Visibility 9.2 miles    
Events Snow    
Averages and records for this station are not official NWS values.
T = Trace of Precipitation, MM = Missing Value Source: Averaged Metar Reports

Daily Weather History Graph

Daily Weather History Graph

Search for Another Location

Airport or City:

Trip Planner

Search our weather history database for the weather conditions in past years. The results will help you decide how hot, cold, wet, or windy it might be!

Date:

Astronomy

Oct. 05, 2012 Rise Set
Actual Time 7:44 AM CDT 7:19 PM CDT
Civil Twilight 7:17 AM CDT 7:46 PM CDT
Nautical Twilight 6:46 AM CDT 8:17 PM CDT
Astronomical Twilight 6:15 AM CDT 8:48 PM CDT
Moon 10:46 PM CDT (10/5) 12:52 PM CDT (10/5)
Length of Visible Light 12h 28m
Length of Day
11h 34m
Waning Gibbous, 74% of the Moon is Illuminated
Oct 5
Waning Gibbous
Oct 8
Last Quarter
Oct 15
New
Oct 21
First Quarter
Oct 29
Full

Hourly Weather History & Observations

Time (CDT) Temp. Windchill Dew Point Humidity Pressure Visibility Wind Dir Wind Speed Gust Speed Precip Events Conditions
12:15 AM 39.2 °F 33.6 °F 30.2 °F 70% 30.31 in 10.0 mi ENE 8.1 mph - N/A   Clear
12:35 AM 37.4 °F 30.8 °F 30.2 °F 75% 30.30 in 10.0 mi ENE 9.2 mph - N/A   Clear
12:55 AM 37.4 °F 30.3 °F 30.2 °F 75% 30.29 in 10.0 mi ENE 10.4 mph - N/A   Clear
1:15 AM 37.4 °F 30.8 °F 30.2 °F 75% 30.29 in 10.0 mi ENE 9.2 mph - N/A   Clear
1:35 AM 35.6 °F 28.6 °F 30.2 °F 81% 30.30 in 10.0 mi ENE 9.2 mph - N/A   Clear
1:55 AM 35.6 °F 28.6 °F 30.2 °F 81% 30.31 in 10.0 mi NE 9.2 mph - N/A   Clear
2:15 AM 35.6 °F 28.0 °F 30.2 °F 81% 30.29 in 10.0 mi NE 10.4 mph - N/A   Clear
2:35 AM 35.6 °F 28.0 °F 30.2 °F 81% 30.30 in 10.0 mi NE 10.4 mph - N/A   Clear
2:55 AM 35.6 °F 29.2 °F 30.2 °F 81% 30.30 in 10.0 mi ENE 8.1 mph - N/A   Clear
3:15 AM 35.6 °F 29.9 °F 30.2 °F 81% 30.31 in 10.0 mi NE 6.9 mph - N/A   Clear
3:35 AM 35.6 °F 28.6 °F 30.2 °F 81% 30.30 in 10.0 mi ENE 9.2 mph - N/A   Clear
3:55 AM 37.4 °F 30.8 °F 30.2 °F 75% 30.29 in 10.0 mi ENE 9.2 mph - N/A   Clear
4:15 AM 37.4 °F 30.3 °F 30.2 °F 75% 30.28 in 10.0 mi East 10.4 mph - N/A   Scattered Clouds
4:35 AM 37.4 °F 29.8 °F 30.2 °F 75% 30.28 in 10.0 mi ENE 11.5 mph - N/A   Mostly Cloudy
4:55 AM 37.4 °F 30.3 °F 32.0 °F 81% 30.26 in 10.0 mi East 10.4 mph - N/A   Overcast
5:15 AM 35.6 °F 26.6 °F 32.0 °F 87% 30.22 in 10.0 mi East 13.8 mph - N/A   Scattered Clouds
5:35 AM 37.4 °F 31.4 °F 32.0 °F 81% 30.26 in 10.0 mi ENE 8.1 mph - N/A   Scattered Clouds
5:55 AM 37.4 °F 31.4 °F 32.0 °F 81% 30.26 in 10.0 mi NE 8.1 mph - N/A   Overcast
6:15 AM 37.4 °F 32.1 °F 32.0 °F 81% 30.29 in 10.0 mi ENE 6.9 mph - N/A   Overcast
6:35 AM 37.4 °F 30.8 °F 32.0 °F 81% 30.27 in 10.0 mi East 9.2 mph - N/A   Overcast
6:55 AM 37.4 °F 30.3 °F 32.0 °F 81% 30.27 in 10.0 mi East 10.4 mph - N/A   Overcast
7:15 AM 37.4 °F 29.8 °F 32.0 °F 81% 30.26 in 10.0 mi East 11.5 mph - N/A   Overcast
7:55 AM 37.4 °F 30.3 °F 32.0 °F 81% 30.27 in 10.0 mi East 10.4 mph - N/A   Overcast
8:35 AM 37.4 °F 32.8 °F 32.0 °F 81% 30.31 in 10.0 mi East 5.8 mph - N/A   Overcast
8:55 AM 37.4 °F 34.9 °F 32.0 °F 81% 30.34 in 10.0 mi NE 3.5 mph - N/A   Overcast
9:35 AM 35.6 °F 28.0 °F 33.8 °F 93% 30.32 in 1.5 mi East 10.4 mph - N/A Snow Light Snow
9:55 AM 33.8 °F 26.4 °F 33.8 °F 100% 30.32 in 1.8 mi East 9.2 mph - N/A Snow Light Snow
10:15 AM 33.8 °F 28.6 °F 33.8 °F 100% 30.34 in 0.8 mi East 5.8 mph - N/A Snow Light Snow
10:35 AM 33.8 °F 29.6 °F 33.8 °F 100% 30.34 in 1.0 mi East 4.6 mph - N/A Snow Light Snow
10:55 AM 33.8 °F 28.6 °F 33.8 °F 100% 30.34 in 1.2 mi East 5.8 mph - N/A Snow Light Snow
11:15 AM 33.8 °F 27.0 °F 33.8 °F 100% 30.34 in 1.5 mi ENE 8.1 mph - N/A Snow Light Snow
11:55 AM 33.8 °F 24.8 °F 33.8 °F 100% 30.34 in 7.0 mi East 12.7 mph - N/A Snow Light Snow
12:15 PM 35.6 °F 28.0 °F 35.6 °F 100% 30.35 in 10.0 mi ENE 10.4 mph - N/A Snow Light Snow
12:35 PM 35.6 °F 27.5 °F 35.6 °F 100% 30.35 in 10.0 mi ENE 11.5 mph - N/A   Overcast
12:55 PM 35.6 °F 27.5 °F 35.6 °F 100% 30.35 in 10.0 mi East 11.5 mph - N/A   Overcast
1:15 PM 35.6 °F 27.5 °F 35.6 °F 100% 30.34 in 10.0 mi ENE 11.5 mph - N/A   Overcast
1:35 PM 35.6 °F 28.0 °F 35.6 °F 100% 30.34 in 10.0 mi East 10.4 mph - N/A   Overcast
1:55 PM 35.6 °F 27.5 °F 35.6 °F 100% 30.33 in 10.0 mi East 11.5 mph - N/A   Overcast
2:15 PM 35.6 °F 28.6 °F 35.6 °F 100% 30.32 in 10.0 mi East 9.2 mph - N/A   Overcast
2:35 PM 35.6 °F 28.0 °F 35.6 °F 100% 30.32 in 10.0 mi ENE 10.4 mph - N/A   Overcast
2:55 PM 35.6 °F 29.2 °F 35.6 °F 100% 30.32 in 10.0 mi East 8.1 mph - N/A   Overcast
3:15 PM 37.4 °F 32.1 °F 35.6 °F 93% 30.31 in 10.0 mi East 6.9 mph - N/A   Overcast
3:35 PM 37.4 °F 31.4 °F 35.6 °F 93% 30.31 in 10.0 mi ENE 8.1 mph - N/A   Overcast
3:55 PM 37.4 °F 29.8 °F 37.4 °F 100% 30.31 in 10.0 mi NE 11.5 mph - N/A   Overcast
4:15 PM 37.4 °F 32.1 °F 37.4 °F 100% 30.31 in 10.0 mi ENE 6.9 mph - N/A   Overcast
4:35 PM 37.4 °F 33.8 °F 35.6 °F 93% 30.31 in 10.0 mi ENE 4.6 mph - N/A   Overcast
4:55 PM 37.4 °F 34.9 °F 35.6 °F 93% 30.31 in 10.0 mi ENE 3.5 mph - N/A   Overcast
5:15 PM 39.2 °F 35.0 °F 37.4 °F 93% 30.31 in 10.0 mi ENE 5.8 mph - N/A   Overcast
5:35 PM 39.2 °F 34.2 °F 35.6 °F 87% 30.31 in 10.0 mi ENE 6.9 mph - N/A   Overcast
5:55 PM 39.2 °F 34.2 °F 35.6 °F 87% 30.31 in 10.0 mi ENE 6.9 mph - N/A   Overcast
6:15 PM 39.2 °F 35.0 °F 35.6 °F 87% 30.31 in 10.0 mi NE 5.8 mph - N/A   Overcast
6:35 PM 39.2 °F 34.2 °F 35.6 °F 87% 30.32 in 10.0 mi NE 6.9 mph - N/A   Overcast
6:55 PM 39.2 °F 35.0 °F 35.6 °F 87% 30.32 in 10.0 mi NE 5.8 mph - N/A   Overcast
7:15 PM 39.2 °F 35.9 °F 35.6 °F 87% 30.32 in 10.0 mi NNE 4.6 mph - N/A   Overcast
7:35 PM 39.2 °F 35.0 °F 35.6 °F 87% 30.34 in 10.0 mi NNE 5.8 mph - N/A   Overcast
7:55 PM 37.4 °F 32.1 °F 35.6 °F 93% 30.34 in 10.0 mi NNE 6.9 mph - N/A   Overcast
8:15 PM 37.4 °F 32.1 °F 35.6 °F 93% 30.34 in 10.0 mi NNE 6.9 mph - N/A   Overcast
8:35 PM 37.4 °F 32.1 °F 35.6 °F 93% 30.34 in 10.0 mi NNE 6.9 mph - N/A   Overcast
8:55 PM 37.4 °F 32.8 °F 35.6 °F 93% 30.35 in 10.0 mi NNE 5.8 mph - N/A   Overcast
9:15 PM 37.4 °F 32.8 °F 35.6 °F 93% 30.36 in 10.0 mi North 5.8 mph - N/A   Mostly Cloudy
9:35 PM 35.6 °F 29.2 °F 35.6 °F 100% 30.35 in 10.0 mi North 8.1 mph - N/A   Scattered Clouds
9:55 PM 35.6 °F 29.9 °F 35.6 °F 100% 30.34 in 10.0 mi North 6.9 mph - N/A   Clear
10:15 PM 35.6 °F 32.8 °F 35.6 °F 100% 30.35 in 10.0 mi North 3.5 mph - N/A   Clear
10:35 PM 35.6 °F - 35.6 °F 100% 30.36 in 10.0 mi Calm Calm - N/A   Clear
10:55 PM 35.6 °F - 33.8 °F 93% 30.36 in 10.0 mi Calm Calm - N/A   Mostly Cloudy
11:15 PM 35.6 °F 32.8 °F 35.6 °F 100% 30.36 in 10.0 mi SW 3.5 mph - N/A   Overcast
11:35 PM 35.6 °F 32.8 °F 35.6 °F 100% 30.36 in 10.0 mi SW 3.5 mph - N/A   Overcast
11:55 PM 35.6 °F 31.7 °F 35.6 °F 100% 30.36 in 10.0 mi SW 4.6 mph - N/A   Overcast